TimeCST,TemperatureF,Dew PointF,Humidity,Sea Level PressureIn,VisibilityMPH,Wind Direction,Wind SpeedMPH,Gust SpeedMPH,PrecipitationIn,Events,Conditions,WindDirDegrees,DateUTC
12:12 AM,41.0,41.0,100,29.51,1.0,Calm,Calm,-,0.00,Rain,Light Rain,0,2012-12-16 06:12:00
12:33 AM,42.8,42.8,100,29.51,0.5,Calm,Calm,-,0.01,Fog-Rain,Light Rain,0,2012-12-16 06:33:00
12:49 AM,42.8,42.8,100,29.51,0.8,Calm,Calm,-,0.01,Rain,Light Rain,0,2012-12-16 06:49:00
12:53 AM,42.1,41.0,96,29.53,0.8,Calm,Calm,-,0.01,Rain,Light Rain,0,2012-12-16 06:53:00
1:17 AM,42.8,41.0,93,29.51,1.0,Calm,Calm,-,0.00,Rain,Light Rain,0,2012-12-16 07:17:00
1:29 AM,42.8,41.0,93,29.51,0.8,Calm,Calm,-,0.01,Rain,Light Rain,0,2012-12-16 07:29:00
1:53 AM,42.1,41.0,96,29.53,1.0,Calm,Calm,-,0.01,Rain,Light Rain,0,2012-12-16 07:53:00
2:14 AM,42.8,42.8,100,29.52,1.2,Calm,Calm,-,0.01,Rain,Light Rain,0,2012-12-16 08:14:00
2:41 AM,42.8,42.8,100,29.53,1.8,SW,4.6,-,0.02,,Overcast,220,2012-12-16 08:41:00
2:53 AM,43.0,43.0,100,29.55,1.8,SW,4.6,-,0.02,,Overcast,220,2012-12-16 08:53:00
3:03 AM,42.8,42.8,100,29.53,2.5,SW,4.6,-,N/A,,Overcast,220,2012-12-16 09:03:00
3:11 AM,42.8,42.8,100,29.53,4.0,WSW,8.1,-,N/A,,Overcast,250,2012-12-16 09:11:00
3:45 AM,44.6,42.8,93,29.54,10.0,WNW,4.6,-,N/A,,Overcast,300,2012-12-16 09:45:00
3:53 AM,43.0,42.1,97,29.56,10.0,West,4.6,-,N/A,,Overcast,280,2012-12-16 09:53:00
4:25 AM,42.8,41.0,93,29.55,6.0,West,9.2,-,N/A,,Overcast,280,2012-12-16 10:25:00
4:53 AM,42.1,39.9,92,29.58,10.0,West,8.1,-,N/A,,Overcast,270,2012-12-16 10:53:00
5:51 AM,39.2,37.4,93,29.59,10.0,West,8.1,20.7,N/A,,Overcast,260,2012-12-16 11:51:00
5:53 AM,39.0,37.0,93,29.61,10.0,West,8.1,-,N/A,,Overcast,260,2012-12-16 11:53:00
6:53 AM,37.9,35.1,89,29.63,10.0,West,10.4,-,N/A,,Overcast,280,2012-12-16 12:53:00
7:53 AM,37.0,34.0,89,29.64,10.0,West,4.6,-,N/A,,Overcast,280,2012-12-16 13:53:00
8:53 AM,37.0,34.0,89,29.66,10.0,West,4.6,-,N/A,,Overcast,260,2012-12-16 14:53:00
9:53 AM,37.0,34.0,89,29.69,10.0,West,5.8,-,N/A,,Overcast,260,2012-12-16 15:53:00
10:53 AM,37.9,35.1,89,29.69,10.0,Variable,3.5,-,N/A,,Overcast,0,2012-12-16 16:53:00
11:53 AM,37.9,34.0,86,29.69,8.0,West,5.8,-,N/A,,Overcast,270,2012-12-16 17:53:00
12:53 PM,39.0,34.0,82,29.68,9.0,West,5.8,-,N/A,,Overcast,270,2012-12-16 18:53:00
1:31 PM,39.2,33.8,81,29.66,10.0,WNW,6.9,-,N/A,,Overcast,300,2012-12-16 19:31:00
1:53 PM,39.0,34.0,82,29.68,8.0,NW,5.8,-,N/A,,Overcast,310,2012-12-16 19:53:00
2:53 PM,37.9,34.0,86,29.68,6.0,WNW,5.8,-,N/A,,Overcast,300,2012-12-16 20:53:00
3:53 PM,37.0,33.1,86,29.70,6.0,WNW,4.6,-,N/A,,Overcast,290,2012-12-16 21:53:00
4:53 PM,36.0,32.0,86,29.70,6.0,WNW,4.6,-,N/A,,Overcast,290,2012-12-16 22:53:00
5:53 PM,36.0,32.0,86,29.72,6.0,West,4.6,-,N/A,,Overcast,260,2012-12-16 23:53:00
6:53 PM,35.1,30.9,85,29.75,7.0,WNW,4.6,-,N/A,,Overcast,300,2012-12-17 00:53:00
7:53 PM,34.0,30.0,85,29.76,7.0,West,5.8,-,N/A,,Overcast,270,2012-12-17 01:53:00
8:53 PM,34.0,30.9,89,29.77,6.0,WSW,3.5,-,N/A,,Overcast,240,2012-12-17 02:53:00
9:53 PM,33.1,30.0,89,29.76,7.0,WNW,5.8,-,N/A,,Overcast,300,2012-12-17 03:53:00
10:23 PM,33.8,30.2,87,29.74,7.0,West,5.8,-,N/A,,Overcast,270,2012-12-17 04:23:00
10:53 PM,32.0,28.9,88,29.77,7.0,Variable,5.8,-,N/A,,Overcast,0,2012-12-17 04:53:00
11:48 PM,30.2,28.4,93,29.76,8.0,WNW,5.8,-,N/A,,Overcast,290,2012-12-17 05:48:00
11:53 PM,30.9,28.0,89,29.78,8.0,West,5.8,-,N/A,,Overcast,270,2012-12-17 05:53:00